Simultaneous Nadir Overpasses (SNOs) Predictions

Prediction of SNOs between LANDSAT-8 and NOAA-19 Satellite Orbit:

Table of predicted SNOs for the next 14.0 days since TLE Epoch: 10/12/2024
Index Date (LANDSAT-8) Time (LANDSAT-8) Lat,Lon (LANDSAT-8) SZA (LANDSAT-8 ) Date (NOAA-19) Time (NOAA-19) Lat,Lon (NOAA-19) SZA (NOAA-19 ) Distance(km) Time Diff (sec)
1 10/12/2024 17:12:48 80.39, -47.07 89.79 10/12/2024 17:11:59 80.40, -46.91 89.79 2.96 49
2 10/12/2024 18:02:14 -80.42, 120.89 90.15 10/12/2024 18:03:00 -80.43, 120.96 90.11 1.70 46
3 10/15/2024 00:25:27 -80.39, 24.78 89.35 10/15/2024 00:25:37 -80.40, 24.80 89.34 0.86 10
4 10/17/2024 06:48:38 -80.37, -71.21 88.55 10/17/2024 06:48:13 -80.37, -71.23 88.56 0.39 25
5 10/17/2024 07:38:02 80.43, 97.04 91.58 10/17/2024 07:39:05 80.44, 97.14 91.62 1.95 63
6 10/19/2024 13:11:48 -80.33,-167.39 87.79 10/19/2024 13:10:49 -80.33,-167.47 87.82 1.63 59
7 10/19/2024 14:01:12 80.39, 0.83 92.33 10/19/2024 14:01:42 80.39, 0.71 92.33 2.29 30
8 10/21/2024 20:24:20 80.36, -95.25 93.09 10/21/2024 20:24:17 80.37, -95.25 93.09 0.42 3
9 10/24/2024 02:47:26 80.34, 168.80 93.85 10/24/2024 02:46:51 80.35, 168.93 93.86 2.58 35



Historial Predications of SNOs between LANDSAT-8 and NOAA-19
